Sierra Vista, AZ

10:28 PM MST on April 29, 2017 (GMT -0700)
Sierra Vista Municipal-Libby Army Air Field

Weather History for KFHU - February, 2013

Change the Weather History Date:

Tuesday, February 12, 2013

  Actual Average Record
Temperature  
Mean Temperature 33 °F -  
Max Temperature 42 °F 60 °F 78 °F (1990)
Min Temperature 24 °F 39 °F 23 °F (1986)
Degree Days  
Heating Degree Days 32    
Moisture  
Dew Point 23 °F    
Average Humidity 74    
Maximum Humidity 100    
Minimum Humidity 34    
Precipitation  
Precipitation 0.00 in - - ()
Snow  
Snow 0.00 in - - ()
Snow Depth 1.00 in    
Sea Level Pressure  
Sea Level Pressure 30.18 in    
Wind  
Wind Speed 5 mph (SSW)    
Max Wind Speed 10 mph    
Max Gust Speed -    
Visibility 6 miles    
Events Fog    
Averages and records for this station are not official NWS values.
T = Trace of Precipitation, MM = Missing Value Source: NWS Daily Summary

Daily Weather History Graph

Daily Weather History Graph

Search for Another Location

Airport or City:

Trip Planner

Search our weather history database for the weather conditions in past years. The results will help you decide how hot, cold, wet, or windy it might be!

Date:

Astronomy

Feb. 12, 2013 Rise Set
Actual Time 7:05 AM MST 6:06 PM MST
Civil Twilight 6:40 AM MST 6:31 PM MST
Nautical Twilight 6:11 AM MST 6:59 PM MST
Astronomical Twilight 5:43 AM MST 7:28 PM MST
Moon 8:18 AM MST (2/12) 8:54 PM MST (2/12)
Length of Visible Light 11h 50m
Length of Day
11h 00m
Waxing Crescent, 8% of the Moon is Illuminated
Feb 12
Waxing Crescent
Feb 17
First Quarter
Feb 25
Full
Mar 4
Last Quarter
Mar 11
New

Hourly Weather History & Observations

Time (MST) Temp. Windchill Dew Point Humidity Pressure Visibility Wind Dir Wind Speed Gust Speed Precip Events Conditions
12:55 AM 26.6 °F 16.8 °F 24.8 °F 93% 30.13 in 10.0 mi WSW 10.4 mph - N/A   Clear
1:55 AM 28.4 °F 19.7 °F 24.8 °F 86% 30.12 in 10.0 mi WSW 9.2 mph - N/A   Clear
2:55 AM 26.6 °F 17.5 °F 23.0 °F 86% 30.13 in 10.0 mi WSW 9.2 mph - N/A   Clear
3:55 AM 24.8 °F 19.1 °F 19.4 °F 80% 30.14 in 10.0 mi WSW 4.6 mph - N/A   Clear
4:33 AM 24.8 °F 20.5 °F 23.0 °F 93% 30.11 in 0.2 mi NW 3.5 mph - N/A Fog Light Freezing Fog
4:55 AM 24.8 °F - 24.8 °F 100% 30.17 in 0.1 mi Calm Calm - N/A Fog Light Freezing Fog
5:55 AM 26.6 °F - 24.8 °F 93% 30.19 in 0.1 mi Calm Calm - N/A Fog Light Freezing Fog
6:39 AM 26.6 °F 22.6 °F 24.8 °F 93% 30.14 in 0.1 mi South 3.5 mph - N/A Fog Light Freezing Fog
6:55 AM 28.4 °F 24.6 °F 24.8 °F 86% 30.21 in 0.2 mi South 3.5 mph - N/A Fog Light Freezing Fog
7:28 AM 26.6 °F 20.0 °F 24.8 °F 93% 30.15 in 0.5 mi South 5.8 mph - N/A Fog Light Freezing Fog
7:36 AM 26.6 °F 20.0 °F 24.8 °F 93% 30.16 in 0.8 mi SSW 5.8 mph - N/A   Overcast
7:48 AM 26.6 °F 21.2 °F 24.8 °F 93% 30.16 in 3.0 mi South 4.6 mph - N/A   Overcast
7:55 AM 26.6 °F 22.6 °F 24.8 °F 93% 30.23 in 3.0 mi SSE 3.5 mph - N/A   Overcast
8:24 AM 28.4 °F 23.3 °F 24.8 °F 86% 30.18 in 0.5 mi SSE 4.6 mph - N/A Fog Light Freezing Fog
8:37 AM 28.4 °F - 24.8 °F 86% 30.18 in 0.2 mi Calm Calm - N/A Fog Light Freezing Fog
8:55 AM 28.4 °F 24.6 °F 24.8 °F 86% 30.25 in 0.8 mi South 3.5 mph - N/A   Mist
9:05 AM 28.4 °F 23.3 °F 24.8 °F 86% 30.19 in 1.8 mi SSE 4.6 mph - N/A   Mist
9:15 AM 28.4 °F 24.6 °F 26.6 °F 93% 30.19 in 4.0 mi SSE 3.5 mph - N/A   Mist
9:55 AM 30.2 °F 26.7 °F 26.6 °F 86% 30.25 in 10.0 mi SSE 3.5 mph - N/A   Partly Cloudy
10:55 AM 30.2 °F - 26.6 °F 86% 30.27 in 10.0 mi Calm Calm - N/A   Partly Cloudy
11:55 AM 35.6 °F - 26.6 °F 70% 30.24 in 10.0 mi Calm Calm - N/A   Partly Cloudy
12:55 PM 39.2 °F - 24.8 °F 56% 30.21 in 10.0 mi Variable 2.3 mph - N/A   Partly Cloudy
1:55 PM 42.8 °F - 17.6 °F 36% 30.17 in 10.0 mi Calm Calm - N/A   Partly Cloudy
2:55 PM 42.8 °F 38.6 °F 15.8 °F 34% 30.16 in 10.0 mi Variable 6.9 mph - N/A   Partly Cloudy
3:55 PM 42.8 °F 40.1 °F 15.8 °F 34% 30.17 in 10.0 mi Variable 4.6 mph - N/A   Partly Cloudy
4:55 PM 42.8 °F 37.0 °F 15.8 °F 34% 30.17 in 10.0 mi NNE 10.4 mph - N/A   Partly Cloudy
5:55 PM 41.0 °F 37.1 °F 19.4 °F 42% 30.17 in 10.0 mi NE 5.8 mph - N/A   Clear
6:55 PM 37.4 °F 33.8 °F 23.0 °F 56% 30.17 in 10.0 mi North 4.6 mph - N/A   Clear
7:55 PM 35.6 °F 31.7 °F 23.0 °F 60% 30.21 in 10.0 mi WNW 4.6 mph - N/A   Clear
8:55 PM 33.8 °F 27.0 °F 24.8 °F 70% 30.21 in 10.0 mi WSW 8.1 mph - N/A   Clear
9:55 PM 37.4 °F 34.9 °F 19.4 °F 48% 30.20 in 10.0 mi Variable 3.5 mph - N/A   Clear
10:55 PM 35.6 °F - 19.4 °F 52% 30.20 in 10.0 mi Calm Calm - N/A   Clear
11:55 PM 35.6 °F 32.8 °F 21.2 °F 56% 30.20 in 10.0 mi SE 3.5 mph - N/A   Clear